KA7VEE Weather Reports


Display with metric or nautical units.
time (UTC)temp
F
wind
direction
speed
MPH
gust
MPH
rain 1hr
in
rain 24hr
in
rain mn
in
humidity
%
barometer
mb
20260503203604 0 97 0.0 3.0 0.00 0.00 0.00 1010.3
20260503203101 0 104 3.0 5.0 0.00 0.00 0.00 1010.7
20260503202559 0 145 4.0 6.0 0.00 0.00 0.00 1010.3
20260503202057 0 110 1.0 2.0 0.00 0.00 0.00 1010.4
20260503201555 0 90 1.0 2.0 0.00 0.00 0.00 1010.7
20260503201052 0 79 3.0 6.0 0.00 0.00 0.00 1010.4
20260503200548 0 78 3.0 6.0 0.00 0.00 0.00 1010.7
20260503200044 0 92 5.0 6.0 0.00 0.00 0.00 1010.7
20260503195542 0 100 2.0 3.0 0.00 0.00 0.00 1010.8
20260503195038 0 117 4.0 6.0 0.00 0.00 0.00 1010.9
20260503194536 0 98 0.0 2.0 0.00 0.00 0.00 1010.9
20260503194035 0 103 0.0 2.0 0.00 0.00 0.00 1011.0
20260503193532 0 101 1.0 3.0 0.00 0.00 0.00 1011.0
20260503193027 0 94 2.0 5.0 0.00 0.00 0.00 1011.0
20260503192524 0 51 3.0 6.0 0.00 0.00 0.00 1011.3
20260503192020 0 68 2.0 6.0 0.00 0.00 0.00 1011.4
20260503191517 0 100 1.0 6.0 0.00 0.00 0.00 1011.3
20260503191014 0 118 1.0 3.0 0.00 0.00 0.00 1011.3
20260503190511 0 83 2.0 3.0 0.00 0.00 0.00 1011.5
20260503190008 0 90 1.0 3.0 0.00 0.00 0.00 1011.2
20260503185504 0 144 1.0 6.0 0.00 0.00 0.00 1011.3
20260503184958 0 43 3.0 6.0 0.00 0.00 0.00 1011.5
20260503184454 0 82 2.0 7.0 0.00 0.00 0.00 1011.4
20260503183951 0 350 3.0 5.0 0.00 0.00 0.00 1011.3
20260503183448 0 136 3.0 6.0 0.00 0.00 0.00 1011.6
20260503182944 0 84 2.0 6.0 0.00 0.00 0.00 1011.5
20260503182443 0 103 2.0 3.0 0.00 0.00 0.00 1011.6
20260503181941 0 98 1.0 3.0 0.00 0.00 0.00 1011.8
20260503181438 0 102 1.0 3.0 0.00 0.00 0.00 1011.7
20260503180933 0 119 0.0 3.0 0.00 0.00 0.00 1011.8
20260503180432 0 103 2.0 3.0 0.00 0.00 0.00 1011.8
20260503175928 0 103 2.0 5.0 0.00 0.00 0.00 1011.8
20260503175427 0 120 3.0 5.0 0.00 0.00 0.00 1011.9
20260503174922 0 120 3.0 5.0 0.00 0.00 0.00 1011.9
20260503174421 0 183 3.0 3.0 0.00 0.00 0.00 1011.9
20260503173920 0 105 2.0 3.0 0.00 0.00 0.00 1012.0
20260503173417 0 106 0.0 1.0 0.00 0.00 0.00 1012.1
20260503172914 0 124 2.0 3.0 0.00 0.00 0.00 1012.1
20260503172411 0 123 1.0 5.0 0.00 0.00 0.00 1012.1
20260503171907 0 123 2.0 5.0 0.00 0.00 0.00 1012.1
20260503171404 0 105 1.0 16.0 0.00 0.00 0.00 1012.3
20260503170902 0 0.0 0.0 0.00 0.00 0.00 1012.1
20260503170358 0 0.0 0.0 0.00 0.00 0.00 1012.2
20260503150750 0 0.0 0.0 0.00 0.00 0.00 1012.7
20260503150246 0 0.0 0.0 0.00 0.00 0.00 1012.6
20260503140211 0 0.0 0.0 0.00 0.00 0.00 1012.6
20260503131140 0 0.0 0.0 0.00 0.00 0.00 1012.7
20260503130638 0 0.0 0.0 0.00 0.00 0.00 1012.5
20260503130135 0 0.0 0.0 0.00 0.00 0.00 1012.3
20260503110527 0 0.0 0.0 0.00 0.00 0.00 1012.7
20260503090415 0 0.0 0.0 0.00 0.00 0.00 1012.8
20260503081341 0 0.0 0.0 0.00 0.00 0.00 1012.9
20260503080838 0 0.0 0.0 0.00 0.00 0.00 1012.9
20260503080335 0 0.0 0.0 0.00 0.00 0.00 1013.0
20260503072811 0 0.0 0.0 0.00 0.00 0.00 1013.0
20260503072308 0 0.0 0.0 0.00 0.00 0.00 1012.8
20260503071804 0 0.0 0.0 0.00 0.00 0.00 1013.0
20260503071302 0 0.0 0.0 0.00 0.00 0.00 1012.7
20260503070758 0 0.0 0.0 0.00 0.00 0.00 1012.8
20260503070256 0 0.0 0.0 0.00 0.00 0.00 1012.7
20260503060215 0 0.0 0.0 0.00 0.00 0.00 1012.6
20260503054702 0 0.0 0.0 0.00 0.00 0.00 1012.6
20260503054159 0 0.0 0.0 0.00 0.00 0.00 1012.5
20260503053657 0 0.0 0.0 0.00 0.00 0.00 1012.7
20260503053155 0 0.0 0.0 0.00 0.00 0.00 1012.5
20260503052652 0 0.0 0.0 0.00 0.00 0.00 1012.5
20260503052148 0 0.0 0.0 0.00 0.00 0.00 1012.6
20260503051643 0 0.0 0.0 0.00 0.00 0.00 1012.5
20260503051141 0 0.0 0.0 0.00 0.00 0.00 1012.5
20260503050638 0 0.0 0.0 0.00 0.00 0.00 1012.3
20260503050134 0 0.0 0.0 0.00 0.00 0.00 1012.4
20260503045632 0 0.0 0.0 0.00 0.00 0.00 1012.4
20260503045129 0 0.0 0.0 0.00 0.00 0.00 1012.4
20260503044625 0 0.0 0.0 0.00 0.00 0.00 1012.3
20260503044123 0 0.0 0.0 0.00 0.00 0.00 1012.3
20260503043620 0 0.0 0.0 0.00 0.00 0.00 1012.3
20260503043116 0 0.0 0.0 0.00 0.00 0.00 1012.1
20260503042613 0 202 2.0 2.0 0.00 0.00 0.00 1012.2
20260503042109 0 202 2.0 2.0 0.00 0.00 0.00 1012.0
20260503041606 0 202 2.0 2.0 0.00 0.00 0.00 1012.1
20260503041104 0 202 2.0 2.0 0.00 0.00 0.00 1012.2
20260503040601 0 202 2.0 2.0 0.00 0.00 0.00 1012.1
20260503040058 0 202 2.0 2.0 0.00 0.00 0.00 1011.8
20260503035554 0 202 2.0 2.0 0.00 0.00 0.00 1011.8
20260503035052 0 202 2.0 2.0 0.00 0.00 0.00 1011.7
20260503034549 0 202 2.0 2.0 0.00 0.00 0.00 1011.6
20260503034046 0 202 2.0 2.0 0.00 0.00 0.00 1011.5
20260503033543 0 202 2.0 2.0 0.00 0.00 0.00 1011.5
20260503033041 0 202 2.0 2.0 0.00 0.00 0.00 1011.5
20260503032539 0 202 2.0 3.0 0.00 0.00 0.00 1011.5
20260503032037 0 202 0.0 2.0 0.00 0.00 0.00 1011.5
20260503031535 0 130 0.0 2.0 0.00 0.00 0.00 1011.6
20260503031032 0 123 0.0 2.0 0.00 0.00 0.00 1011.3
20260503030528 0 122 1.0 2.0 0.00 0.00 0.00 1011.6
20260503030025 0 112 1.0 2.0 0.00 0.00 0.00 1011.5
20260503025521 0 108 0.0 1.0 0.00 0.00 0.00 1011.3
20260503025020 0 95 0.0 1.0 0.00 0.00 0.00 1011.4
20260503024515 0 100 1.0 5.0 0.00 0.00 0.00 1011.2
20260503024013 0 112 3.0 5.0 0.00 0.00 0.00 1011.5
20260503023509 0 111 0.0 3.0 0.00 0.00 0.00 1011.4
20260503023007 0 97 1.0 2.0 0.00 0.00 0.00 1011.3
20260503022502 0 92 0.0 3.0 0.00 0.00 0.00 1011.3
20260503021957 0 96 2.0 5.0 0.00 0.00 0.00 1011.2
20260503021454 0 76 3.0 7.0 0.00 0.00 0.00 1011.2
20260503020952 0 120 1.0 6.0 0.00 0.00 0.00 1011.3
20260503020449 0 94 3.0 6.0 0.00 0.00 0.00 1011.4
20260503015945 0 129 1.0 5.0 0.00 0.00 0.00 1011.3
20260503015442 0 98 2.0 7.0 0.00 0.00 0.00 1011.6
20260503014938 0 71 7.0 9.0 0.00 0.00 0.00 1011.3
20260503014435 0 68 2.0 6.0 0.00 0.00 0.00 1011.4
20260503013934 0 81 2.0 3.0 0.00 0.00 0.00 1011.6
20260503013430 0 110 1.0 5.0 0.00 0.00 0.00 1011.6
20260503012927 0 92 4.0 9.0 0.00 0.00 0.00 1011.5
20260503012425 0 80 4.0 7.0 0.00 0.00 0.00 1011.4
20260503011921 0 84 2.0 5.0 0.00 0.00 0.00 1011.6
20260503011412 0 133 7.0 8.0 0.00 0.00 0.00 1011.6
20260503010909 0 92 4.0 7.0 0.00 0.00 0.00 1011.6
20260503010406 0 90 1.0 3.0 0.00 0.00 0.00 1011.8
20260503005903 0 96 3.0 5.0 0.00 0.00 0.00 1011.8
20260503005401 0 72 1.0 2.0 0.00 0.00 0.00 1011.9
20260503004857 0 81 7.0 8.0 0.00 0.00 0.00 1011.9
20260503004354 0 62 4.0 10.0 0.00 0.00 0.00 1011.8
20260503003852 0 96 3.0 5.0 0.00 0.00 0.00 1011.7
20260503003348 0 117 2.0 6.0 0.00 0.00 0.00 1011.8
20260503002845 0 138 2.0 8.0 0.00 0.00 0.00 1011.9
20260503002343 0 93 2.0 6.0 0.00 0.00 0.00 1011.8
20260503001839 0 133 2.0 5.0 0.00 0.00 0.00 1011.8
20260503001335 0 78 4.0 7.0 0.00 0.00 0.00 1011.7
20260503000833 0 87 3.0 7.0 0.00 0.00 0.00 1011.8
20260503000330 0 110 2.0 3.0 0.00 0.00 0.00 1012.0
20260502235827 0 131 3.0 7.0 0.00 0.00 0.00 1011.9
20260502235324 0 79 3.0 7.0 0.00 0.00 0.00 1011.9
20260502234821 0 64 4.0 8.0 0.00 0.00 0.00 1012.0
20260502234318 0 99 2.0 6.0 0.00 0.00 0.00 1012.0
20260502233814 0 143 5.0 6.0 0.00 0.00 0.00 1012.0
20260502233311 0 93 3.0 5.0 0.00 0.00 0.00 1012.1
20260502232808 0 73 2.0 5.0 0.00 0.00 0.00 1012.1
20260502232305 0 108 2.0 5.0 0.00 0.00 0.00 1012.2
20260502231800 0 97 4.0 6.0 0.00 0.00 0.00 1012.2
20260502231258 0 114 0.0 5.0 0.00 0.00 0.00 1012.3
20260502230756 0 140 2.0 8.0 0.00 0.00 0.00 1012.2
20260502230254 0 135 3.0 6.0 0.00 0.00 0.00 1012.3
20260502225750 0 89 2.0 3.0 0.00 0.00 0.00 1012.4
20260502225247 0 138 2.0 7.0 0.00 0.00 0.00 1012.4
20260502224744 0 113 3.0 5.0 0.00 0.00 0.00 1012.7
20260502224240 0 82 3.0 5.0 0.00 0.00 0.00 1012.7
20260502223738 0 117 5.0 9.0 0.00 0.00 0.00 1012.7
20260502223236 0 102 3.0 8.0 0.00 0.00 0.00 1012.7
20260502222733 0 145 5.0 7.0 0.00 0.00 0.00 1012.7
20260502222230 0 126 4.0 9.0 0.00 0.00 0.00 1013.1
20260502221726 0 79 2.0 3.0 0.00 0.00 0.00 1012.9
20260502221223 0 90 4.0 8.0 0.00 0.00 0.00 1013.1
20260502220719 0 32 2.0 8.0 0.00 0.00 0.00 1012.9
20260502220215 0 71 2.0 5.0 0.00 0.00 0.00 1013.2
20260502215713 0 39 7.0 10.0 0.00 0.00 0.00 1013.2
20260502215209 0 89 3.0 6.0 0.00 0.00 0.00 1013.1
20260502214707 0 99 4.0 8.0 0.00 0.00 0.00 1013.2
20260502214204 0 109 3.0 5.0 0.00 0.00 0.00 1013.2
20260502213701 0 93 2.0 9.0 0.00 0.00 0.00 1013.4
20260502213158 0 80 3.0 8.0 0.00 0.00 0.00 1013.4
20260502212656 0 71 5.0 8.0 0.00 0.00 0.00 1013.4
20260502212154 0 131 4.0 6.0 0.00 0.00 0.00 1013.4
20260502211650 0 47 5.0 7.0 0.00 0.00 0.00 1013.5
20260502211147 0 357 2.0 6.0 0.00 0.00 0.00 1013.6
20260502210644 0 87 3.0 6.0 0.00 0.00 0.00 1013.5
20260502210141 0 81 4.0 6.0 0.00 0.00 0.00 1013.6
20260502205638 0 76 6.0 8.0 0.00 0.00 0.00 1013.6
20260502205135 0 118 1.0 5.0 0.00 0.00 0.00 1013.5
20260502204632 0 137 3.0 7.0 0.00 0.00 0.00 1013.7
20260502204130 0 92 5.0 6.0 0.00 0.00 0.00 1013.6